TimeEST,TemperatureF,Dew PointF,Humidity,Sea Level PressureIn,VisibilityMPH,Wind Direction,Wind SpeedMPH,Gust SpeedMPH,PrecipitationIn,Events,Conditions,WindDirDegrees,DateUTC
12:58 AM,32.7,32.5,99,29.89,10.0,NNW,9.2,-,N/A,,Clear,340,2014-03-08 05:58:00
1:58 AM,30.4,30.2,99,29.89,10.0,NNW,5.8,-,N/A,,Clear,340,2014-03-08 06:58:00
2:58 AM,31.3,30.9,99,29.89,10.0,NNW,4.6,-,N/A,,Mostly Cloudy,330,2014-03-08 07:58:00
3:58 AM,34.0,33.8,99,29.89,10.0,NW,5.8,-,N/A,,Overcast,310,2014-03-08 08:58:00
4:48 AM,35.6,33.8,93,29.88,10.0,WNW,5.8,-,N/A,,Overcast,300,2014-03-08 09:48:00
4:58 AM,35.2,34.3,97,29.90,10.0,WNW,5.8,-,N/A,,Overcast,290,2014-03-08 09:58:00
5:28 AM,35.6,33.8,93,29.90,10.0,West,6.9,-,N/A,,Overcast,280,2014-03-08 10:28:00
5:43 AM,35.6,33.8,93,29.90,10.0,West,6.9,-,N/A,,Overcast,270,2014-03-08 10:43:00
5:58 AM,35.6,35.1,98,29.91,10.0,WNW,8.1,-,N/A,,Overcast,300,2014-03-08 10:58:00
6:18 AM,35.6,35.6,100,29.91,10.0,NW,6.9,-,N/A,,Overcast,310,2014-03-08 11:18:00
6:38 AM,33.8,33.8,100,29.92,10.0,NW,5.8,-,N/A,,Scattered Clouds,310,2014-03-08 11:38:00
6:58 AM,33.6,33.6,100,29.94,10.0,WNW,4.6,-,N/A,,Clear,300,2014-03-08 11:58:00
7:58 AM,37.0,36.7,99,29.94,10.0,West,5.8,-,N/A,,Clear,260,2014-03-08 12:58:00
8:58 AM,40.3,35.4,83,29.95,10.0,WNW,6.9,-,N/A,,Clear,290,2014-03-08 13:58:00
9:58 AM,44.6,35.2,70,29.94,10.0,West,5.8,-,N/A,,Clear,260,2014-03-08 14:58:00
10:58 AM,49.5,36.3,61,29.93,10.0,SW,8.1,-,N/A,,Clear,230,2014-03-08 15:58:00
11:58 AM,54.0,37.8,54,29.91,10.0,WNW,9.2,-,N/A,,Clear,290,2014-03-08 16:58:00
12:58 PM,56.8,37.9,49,29.89,10.0,WNW,12.7,-,N/A,,Partly Cloudy,290,2014-03-08 17:58:00
1:58 PM,57.7,37.4,47,29.87,10.0,WNW,13.8,-,N/A,,Clear,290,2014-03-08 18:58:00
2:58 PM,58.3,36.7,45,29.87,10.0,West,8.1,21.9,N/A,,Scattered Clouds,280,2014-03-08 19:58:00
3:58 PM,59.5,37.8,44,29.87,10.0,West,10.4,-,N/A,,Partly Cloudy,270,2014-03-08 20:58:00
4:58 PM,58.5,35.1,42,29.86,10.0,West,9.2,-,N/A,,Scattered Clouds,270,2014-03-08 21:58:00
5:58 PM,55.4,35.1,46,29.88,10.0,West,5.8,-,N/A,,Mostly Cloudy,280,2014-03-08 22:58:00
6:58 PM,51.6,35.2,54,29.90,10.0,WSW,4.6,-,N/A,,Clear,240,2014-03-08 23:58:00
7:58 PM,47.5,36.7,66,29.91,10.0,WNW,1.2,-,N/A,,Clear,290,2014-03-09 00:58:00
8:58 PM,44.6,37.2,75,29.92,10.0,South,3.5,-,N/A,,Mostly Cloudy,190,2014-03-09 01:58:00
9:58 PM,45.1,38.3,77,29.92,10.0,South,2.3,-,N/A,,Overcast,190,2014-03-09 02:58:00
10:58 PM,43.7,38.7,82,29.92,10.0,SSW,1.2,-,N/A,,Overcast,210,2014-03-09 03:58:00
11:58 PM,45.3,38.7,78,29.91,10.0,West,2.3,-,N/A,,Clear,270,2014-03-09 04:58:00